Regional Weather Roundup
Issued by NWS

Home | Current Version | Previous Version | Graphics & Text | Print | Product List | Glossary On
Versions: 1 2 3 4 5 6 7 8 9 10 11 12 13 14 15 16 17 18 19 20 21 22 23 24 25 26 27 28 29 30 31 32 33 34 35 36 37 38 39 40 41 42 43 44 45 46 47 48 49 50
000
ASUS43 KDTX 230401
RWRMI
MICHIGAN HOURLY REGIONAL WEATHER ROUNDUP
NATIONAL WEATHER SERVICE DETROIT/PONTIAC MI
1200 AM EDT SAT MAY 23 2015

NOTE: "FAIR" INDICATES FEW OR NO CLOUDS BELOW 12,000 FEET WITH NO
SIGNIFICANT WEATHER AND/OR OBSTRUCTION TO VISIBILITY.

MIZ047>049-052>055-059>063-066>070-074>076-081>083-230500-
SOUTHEAST LOWER MICHIGAN

CITY           SKY/WX    TMP DP  RH WIND       PRES   REMARKS
ADRIAN         PTCLDY    55  34  45 N7        30.30S
ALMA           PTCLDY    41  33  74 CALM      30.32R
ANN ARBOR      PTCLDY    49  33  54 NE7       30.32R
BAD AXE        CLEAR     36  26  66 CALM      30.32S
CARO           FAIR      35  29  76 CALM      30.32S
DETROIT CITY   PTCLDY    46  28  49 N3        30.36R
DETROIT        MOCLDY    50  28  42 N9        30.34R
FLINT          PTCLDY    45  27  49 SE5       30.35R
GROSSE ILE     PTCLDY    48  30  49 NE10      30.32S
HILLSDALE      PTCLDY    53  33  45 N3        30.31S
HOWELL         PTCLDY    46  32  58 E7        30.34R

CITY           SKY/WX    TMP DP  RH WIND       PRES   REMARKS
JACKSON        PTCLDY    49  36  61 N3        30.31S
LAMBERTVILLE   PTCLDY    48  41  76 CALM      30.30S
LANSING        PTCLDY    47  33  58 CALM      30.33R
LAPEER         FAIR      35  30  83 CALM      30.34R
MASON          FAIR      49  32  52 NE5       30.32S
MONROE         PTCLDY    52  45  76 NE8       30.31R
PONTIAC        PTCLDY    43  22  43 E5        30.34R
PORT HOPE        N/A     40  27  59 SW6       30.30S
PORT HURON     CLEAR     32  30  93 CALM      30.35R
TRI CITIES     CLEAR     46  33  60 SE6       30.32R
MIDLAND        FAIR      37  35  91 E5        30.31S WCI  34
TROY           FAIR      46  21  38 NE5       30.37R
SAGINAW HB     CLEAR     43  28  56 SE6       30.32R
$$
MIZ043>046-050>051-056>058-064>065-071>073-077>080-230500-
SOUTHWEST LOWER MICHIGAN

CITY           SKY/WX    TMP DP  RH WIND       PRES   REMARKS
BATTLE CREEK   PTCLDY    50  33  52 CALM      30.32S
BENTON HARBOR  MOCLDY    42  39  89 E3        30.30S
BIG RAPIDS     PTCLDY    40  32  73 CALM      30.31R
COLDWATER      MOCLDY    50  33  53 CALM      30.31S
FREMONT        FAIR      46  28  50 CALM      30.30S
HOLLAND        MOCLDY    45  38  76 CALM      30.31F
GRAND RAPIDS   PTCLDY    48  35  60 SE3       30.32R
IONIA          FAIR      47  32  56 CALM      30.31F
KALAMAZOO      MOCLDY    49  32  52 CALM      30.32S
LUDINGTON      CLEAR     48  35  60 CALM      30.31R
MARSHALL       PTCLDY    47  36  65 CALM      30.31S
MOUNT PLEASANT CLEAR     42  35  75 CALM      30.31R
MUSKEGON       PTCLDY    44  33  65 CALM      30.31S
SOUTH HAVEN    MOCLDY    42  38  86 CALM      30.31S
$$
MIZ016>042-230500-
NORTHERN LOWER MICHIGAN

CITY           SKY/WX    TMP DP  RH WIND       PRES   REMARKS
ALPENA         CLEAR     34  30  85 CALM      30.30S
BEAVER ISLAND  CLEAR     34  27  76 CALM      30.28S
BELLAIRE       CLEAR     35  31  87 CALM      30.30S
CADILLAC       CLEAR     38  29  69 CALM      30.29S
CHARLEVOIX     CLEAR     39  30  70 CALM      30.31S
FRANKFORT      CLEAR     42  30  63 CALM      30.29R
GAYLORD        CLEAR     37  27  67 CALM      30.28S
HARBOR SPRINGS CLEAR     37  28  70 CALM      30.28F
HOUGHTON LAKE  CLEAR     36  30  79 CALM      30.31R
MANISTEE       CLEAR     39  28  65 CALM      30.30R
OSCODA         CLEAR     33  27  76 SW3       30.31R
PELLSTON       CLEAR     32  26  78 CALM      30.29S
ROGERS CITY    CLEAR     33  29  86 CALM      30.30S
TRAVERSE CITY  CLEAR     41  33  73 CALM      30.29R
$$
MIZ007>008-015-230500-
EASTERN UPPER MICHIGAN

CITY           SKY/WX    TMP DP  RH WIND       PRES   REMARKS
KINROSS        CLEAR     36  23  60 CALM      30.28S
MACKINAC ISLAN CLEAR     39  32  75 NW3       30.27F
NEWBERRY       CLEAR     35  30  83 W8        30.25F WCI  28
S. S. MARIE    CLEAR     33  24  69 CALM      30.27S
$$
MIZ004>006-011>014-085-230500-
CENTRAL UPPER MICHIGAN

CITY           SKY/WX    TMP DP  RH WIND       PRES   REMARKS
MANISTIQUE     CLEAR     37  32  81 CALM      30.27S
ESCANABA       CLEAR     36  30  80 CALM      30.28S
MENOMINEE      CLEAR     46  28  49 S8        30.27S
SAWYER-GWINN   CLEAR     44  28  54 S8        30.25S
$$
MIZ001>003-009>011-084-230500-
WESTERN UPPER MICHIGAN

CITY           SKY/WX    TMP DP  RH WIND       PRES   REMARKS
IRON MOUNTAIN  CLEAR     44  32  62 SE5       30.25S
HOUGHTON       CLEAR     40  28  62 E3        30.18F
COPPER HARBOR    N/A     42  25  50 W13       30.18F
IRONWOOD       CLEAR     57  28  33 S9        30.17S
$$

ABBREVIATIONS USED IN REMARKS
   TC - TEMPERATURE IN CELSIUS
  WCI - WIND CHILL INDEX
   HX - HEAT INDEX
  VSB - VISIBILITY




USA.gov is the U.S. government's official web portal to all federal, state and local government web resources and services.